Location: Agadir Mansour Mhndou
(31.2424°N, 8.7730°W)
Time: 19:13:34
(UTC+00:00)

CZ-4B DEB - Pass Details

Date: 16 October 2021
Orbit: 840 x 861 km, 99.1° (Epoch: 08 December)

Event Time Altitude Azimuth Distance (km) Brightness Sun altitude
Rises 18:19:37 0° 167° (SSE) 3,400 7.3 -4.5°
Reaches altitude 10° 18:21:58 10° 167° (SSE) 2,471 6.6 -5.0°
Maximum altitude 18:27:28 86° 256° (WSW) 862 4.4 -6.2°
Drops below altitude 10° 18:33:01 10° 346° (NNW) 2,497 6.8 -7.4°
Sets 18:35:24 0° 347° (NNW) 3,439 7.5 -7.9°
